User: anonymous   Login
Location: Mentone
(34.5413°N, 85.5351°W)
Time: 08:54:23
(UTC-05:00)
Language:

UOSAT-12 - Orbit

View from above orbital plane
View from above orbital plane
View from above satellite
View from above satellite

Ground track
Ground track

The orbit data is extracted from the following two-line orbital elements,

1 25693U 99021A   18171.93425829 -.00000107 +00000-0 +55140-5 0  9995
2 25693 064.5567 069.1076 0049086 264.1047 095.4462 14.80801464034452
Epoch (UTC): 20 June 2018 22:25:19
Eccentricity: 0.0049086
inclination: 64.5567°
perigee height: 592 km
apogee height: 661 km
right ascension of ascending node: 69.1076°
argument of perigee: 264.1047°
revolutions per day: 14.80801464
mean anomaly at epoch: 95.4462°
orbit number at epoch: 3445

The dashed part of the orbit path shows where the satellite is in the earth's shadow,  

DLR